Dewpoint
51 51 52 52 52 55 56 55 53 47 42 43 46 51 52 52 52 53 55 58 57 55 55 55 54 54 54 53 52 52 52 51 51 51 51 51 50 50 50 50 50 50 50
50 50 50 50 48 50 50 50 43 44 43 43 45 50 51 51 50 50 51 53 57 57 54 54 52 52 52 52 52 51 50 50 50 50 50 50 50 50 50 51 51 51 51
49 49 50 48 45 43 43 40 43 44 44 43 45 50 51 49 47 46 46 45 48 55 53 50 49 50 50 50 50 51 50 50 50 49 49 48 49 49 49 49 49 49 49
47 46 46 44 43 42 41 40 43 44 44 45 45 48 49 49 47 45 43 42 44 44 47 48 47 47 48 50 51 51 49 48 47 47 47 48 47 47 48 48 48 47 47
43 43 43 43 43 43 42 41 43 44 44 45 46 46 45 46 45 44 42 40 41 39 40 43 44 45 47 48 49 48 47 46 46 46 46 47 47 47 47 47 47 47 47
43 44 44 44 44 43 42 42 41 43 45 46 46 46 44 41 39 38 36 37 35 35 38 38 38 42 45 44 45 47 46 44 45 46 46 46 46 46 46 46 46 46 46
45 45 45 44 44 42 42 41 41 43 46 47 46 45 44 39 37 36 34 33 32 32 33 34 35 34 38 40 42 43 43 43 44 44 45 45 45 45 45 45 46 46 46
48 46 44 45 44 43 42 42 42 44 45 45 44 42 40 40 39 36 33 31 31 33 32 31 31 33 36 36 38 39 40 42 43 45 45 45 44 44 45 45 45 44 44
51 49 46 46 45 44 43 43 43 45 43 41 42 41 38 38 38 38 32 31 31 33 32 32 32 33 33 34 35 35 38 39 42 44 44 44 44 44 44 44 44 43 43
50 50 49 47 45 44 44 43 44 44 42 41 37 36 38 40 37 36 38 31 32 32 33 33 33 32 32 31 33 35 36 37 41 42 44 44 44 44 44 43 43 43 42
52 51 48 46 44 44 44 44 44 44 42 40 38 37 35 35 37 37 35 34 35 36 34 34 33 31 29 29 32 34 35 37 40 41 43 44 44 44 44 43 42 42 42
50 50 49 47 45 44 43 44 44 43 42 41 38 38 35 33 31 33 34 34 34 35 31 32 31 29 29 30 29 35 34 36 38 40 43 43 42 42 42 42 41 41 40
48 47 46 45 44 44 44 43 43 42 40 39 37 36 36 34 33 33 33 28 28 29 30 30 30 29 27 28 29 34 33 34 36 39 41 41 39 39 39 40 40 40 40
48 47 46 45 44 43 42 41 40 39 37 37 34 34 34 34 34 34 33 31 29 28 27 28 28 28 28 29 32 33 30 33 34 35 37 37 36 36 37 37 38 38 38
48 45 43 42 41 40 39 38 37 35 35 35 34 33 33 33 33 31 31 30 28 22 22 25 25 27 28 29 30 29 28 32 31 31 33 34 34 35 35 36 36 36 36
46 43 40 39 38 37 36 36 35 34 33 34 33 31 31 31 31 31 31 30 29 26 23 25 25 27 27 26 31 27 28 31 30 31 32 33 33 33 34 35 35 35 35
45 40 38 36 35 35 35 34 33 32 31 29 30 29 30 30 31 31 32 31 30 28 23 26 28 28 26 26 26 27 27 25 26 31 31 33 32 33 34 34 34 34 34
39 36 34 34 34 33 32 31 30 30 29 28 29 30 30 28 29 29 29 27 29 28 26 25 28 27 25 25 25 25 24 24 26 28 32 32 31 33 32 33 33 33 32
37 35 34 34 34 34 33 32 31 30 29 28 28 29 29 29 28 28 29 30 30 28 28 27 26 27 26 26 25 25 24 25 25 29 29 30 31 32 31 32 32 32 31
36 35 35 34 33 32 31 31 31 31 32 31 30 28 28 28 27 27 28 28 27 27 27 26 26 25 26 26 25 24 24 25 25 25 27 28 30 30 30 31 31 31 32
36 36 35 34 33 33 33 34 33 32 30 28 28 27 29 32 33 31 29 29 27 26 26 25 25 26 25 25 23 24 24 25 24 25 25 24 24 25 25 27 28 30 33
37 36 35 35 35 37 38 37 32 28 27 27 26 27 29 32 30 31 31 31 29 26 25 24 24 25 24 24 24 25 25 23 21 25 24 22 23 23 24 24 29 31 31
38 36 36 35 36 36 37 34 32 27 26 27 28 27 24 27 30 29 30 30 29 28 26 24 24 25 24 24 25 24 23 22 22 23 23 21 22 23 23 24 29 30 29
36 35 35 35 34 33 34 33 32 28 29 28 27 25 26 28 30 28 27 26 24 24 25 24 26 26 26 25 27 25 26 25 23 23 23 22 23 22 23 24 28 28 29
35 34 34 32 31 30 34 33 30 27 25 25 27 26 27 28 30 29 26 25 23 25 26 27 27 27 28 27 30 26 25 23 21 20 24 24 22 23 22 23 23 27 28
34 33 32 30 32 30 33 32 27 24 24 25 26 28 30 28 28 28 25 25 24 25 25 24 24 25 25 25 26 25 24 23 23 21 23 24 23 23 22 23 22 24 23
Lifted_Index
8 9 9 8 7 7 8 9 10 11 11 10 9 8 8 8 8 8 8 8 8 8 9 9 9 10 10 11 11 12 12 12 12 12 12 12 12 13 13 13 13 12 12
8 9 9 9 8 8 9 10 11 11 11 10 9 8 8 8 9 9 9 9 9 9 9 10 10 11 11 11 11 12 12 12 12 12 13 13 13 13 13 13 13 13 13
8 9 9 9 10 10 11 11 11 11 11 11 10 9 8 9 9 10 10 10 11 11 11 12 12 12 12 12 12 12 13 13 13 13 14 14 14 14 14 14 14 14 14
8 9 9 10 11 12 13 12 12 11 11 11 10 9 9 9 10 10 11 12 13 13 14 14 14 14 13 13 12 13 14 14 14 15 15 15 15 15 15 15 15 15 15
8 9 9 10 12 13 13 13 12 11 11 11 11 10 10 10 10 11 12 13 15 16 16 16 16 15 14 14 14 14 15 15 16 16 16 16 16 16 15 15 15 15 15
9 9 10 11 12 13 13 13 12 11 11 11 11 11 10 10 11 12 13 14 16 17 18 18 17 16 16 16 16 16 16 17 17 16 16 16 16 16 16 16 16 16 16
10 10 11 11 12 12 13 13 12 12 11 11 11 11 11 11 12 13 14 15 16 17 18 18 17 17 17 17 18 18 18 18 17 17 17 17 17 17 17 16 16 16 16
10 11 11 11 11 12 12 12 12 12 11 11 11 11 12 12 13 14 15 16 16 17 17 17 17 17 17 18 19 19 20 19 18 18 17 17 17 17 17 17 17 17 17
10 10 11 11 11 11 12 12 12 12 11 11 11 12 12 13 13 14 15 15 16 16 16 16 16 16 17 18 20 21 21 20 19 18 18 17 17 17 17 17 17 17 17
9 10 10 10 11 11 11 11 12 12 11 11 11 12 13 13 13 14 14 15 15 15 15 15 16 16 17 19 20 21 21 21 20 19 18 17 17 17 17 17 18 18 18
9 9 10 10 10 11 11 11 11 11 11 11 12 13 13 13 13 13 13 14 14 15 15 15 16 17 18 19 20 21 22 21 20 19 18 17 17 17 18 18 18 18 18
8 9 10 10 10 11 11 11 11 11 11 11 12 12 13 13 13 13 13 13 14 15 15 15 16 17 18 19 20 21 22 21 21 19 18 18 18 18 18 18 18 18 18
8 9 9 10 10 11 11 12 12 12 12 11 11 12 13 14 14 14 14 13 13 14 15 16 17 17 18 19 20 21 22 21 21 20 19 19 19 19 19 19 19 19 18
8 8 9 10 11 11 12 12 13 13 13 12 11 12 13 14 14 14 14 13 12 12 14 16 17 18 19 20 21 21 22 21 21 21 20 20 20 20 20 19 19 19 19
7 8 9 10 11 11 12 12 13 13 14 13 13 13 13 14 14 13 13 12 11 11 13 15 17 18 19 20 21 21 22 22 22 21 21 21 20 20 20 20 19 19 19
7 8 8 9 10 11 11 12 13 14 14 15 15 14 14 14 13 13 12 13 13 12 13 16 18 19 20 21 21 21 21 21 21 21 21 21 20 20 20 20 19 19 18
7 7 8 8 9 10 10 12 13 14 15 15 15 14 13 12 12 13 14 14 15 15 15 16 18 20 20 21 21 21 21 21 21 21 21 21 20 20 20 19 18 18 17
7 7 7 7 8 9 11 13 14 15 14 14 13 11 11 11 12 14 15 15 16 16 16 17 18 20 20 20 20 20 20 21 21 21 21 21 20 20 19 19 18 17 17
7 7 7 7 8 10 12 14 14 14 12 11 11 11 12 13 14 15 16 16 17 17 18 18 18 19 20 20 19 19 20 20 20 20 20 20 20 19 19 18 18 17 17
6 7 7 8 10 12 13 13 12 11 10 10 11 13 15 15 16 17 17 17 18 18 18 18 18 19 19 19 19 19 19 19 19 19 19 19 19 18 18 18 18 17 17
6 7 7 9 11 12 12 11 10 10 10 12 14 16 17 17 18 18 18 18 18 19 18 18 18 18 18 18 19 19 18 18 18 18 18 17 17 17 17 18 18 17 16
6 7 7 9 10 11 10 10 11 12 14 15 16 17 18 18 18 18 19 19 19 19 19 18 18 18 18 18 19 19 18 17 17 18 17 16 16 16 17 17 17 16 15
6 7 7 9 9 10 11 12 13 15 16 17 17 18 18 18 18 19 19 19 19 19 19 19 19 18 19 19 19 19 18 17 17 17 16 16 16 16 16 16 16 15 14
7 7 8 9 9 11 13 15 16 16 17 17 18 18 18 18 18 19 19 19 19 19 20 20 20 20 20 20 20 19 18 17 16 17 16 16 16 16 15 14 13 13 13
8 8 9 10 11 13 15 16 17 17 17 17 17 18 18 18 19 19 19 19 19 19 20 20 20 20 21 21 20 19 18 16 15 16 16 16 15 14 13 12 11 11 11
8 8 9 11 12 14 15 17 17 17 17 17 17 18 18 18 19 19 19 19 19 19 20 20 20 21 21 21 20 19 17 16 15 15 16 16 15 13 12 11 10 11 11